RESURS-P 5

Last updated on Sat Jan 25 2025 00:02:03 GMT+0000 (Coordinated Universal Time)

1 62430U 24250A 25024.85316085 .00008229 00000+0 26738-3 0 9996 2 62430 97.2605 314.2462 0002281 64.8153 295.3325 15.32164447 4693
UTC large
Height (km)
Speed (km/s)
/
Latitude / Longitude
Inclination (degrees)
Orbital Period (minutes)
Azimuth
Elevation
Range (km)
Doppler Factor

Next 0 passes for location: London (51.5072 / 0.1276)

Sorry there are no passes over London.